GW6786 Weather Reports


time (UTC)temp
C
wind
direction
speed
KPH
gust
KPH
rain 1hr
cm
rain 24hr
cm
rain mn
cm
humidity
%
barometer
mb
20260510044104 15 50 6.4 14.5 0.00 0.00 0.00 75 1027.2
20260510043604 15 68 3.2 14.5 0.00 0.00 0.00 75 1027.2
20260510043104 15 77 6.4 14.5 0.00 0.00 0.00 74 1027.3
20260510042604 15 59 9.7 14.5 0.00 0.00 0.00 73 1027.3
20260510042104 15 84 3.2 14.5 0.00 0.00 0.00 76 1027.3
20260510041604 15 67 8.0 14.5 0.00 0.00 0.00 75 1027.3
20260510041104 15 75 6.4 11.3 0.00 0.00 0.00 75 1027.3
20260510040604 15 71 6.4 14.5 0.00 0.00 0.00 75 1027.3
20260510040104 15 44 4.8 14.5 0.00 0.00 0.00 74 1027.3
20260510035604 15 60 9.7 14.5 0.00 0.00 0.00 73 1027.3
20260510035104 15 71 4.8 14.5 0.00 0.00 0.00 74 1027.3
20260510034604 15 42 3.2 12.9 0.00 0.00 0.00 73 1027.3
20260510034103 15 355 6.4 16.1 0.00 0.00 0.00 75 1027.3
20260510033604 15 69 11.3 16.1 0.00 0.00 0.00 75 1027.3
20260510033104 15 68 6.4 12.9 0.00 0.00 0.00 76 1027.2
20260510032104 13 63 6.4 19.3 0.00 0.00 0.00 77 1027.3
20260510031604 13 81 4.8 19.3 0.00 0.00 0.00 77 1027.3
20260510031104 14 76 11.3 14.5 0.00 0.00 0.00 75 1027.3
20260510030604 14 72 9.7 14.5 0.00 0.00 0.00 74 1027.4
20260510030104 15 65 8.0 19.3 0.00 0.00 0.00 76 1027.4
20260510025604 15 51 8.0 19.3 0.00 0.00 0.00 75 1027.5
20260510024604 15 80 4.8 14.5 0.00 0.00 0.00 76 1027.5
20260510024103 15 63 4.8 16.1 0.00 0.00 0.00 76 1027.6
20260510023604 15 55 8.0 16.1 0.00 0.00 0.00 75 1027.6
20260510023104 15 54 4.8 14.5 0.00 0.00 0.00 76 1027.7
20260510022604 14 357 3.2 8.0 0.00 0.00 0.00 78 1027.7
20260510022104 14 66 6.4 9.7 0.00 0.00 0.00 77 1027.8
20260510021104 14 74 4.8 12.9 0.00 0.00 0.00 77 1027.9
20260510020604 14 70 8.0 14.5 0.00 0.00 0.00 76 1027.9
20260510020104 14 54 4.8 14.5 0.00 0.00 0.00 76 1028.0
20260510015105 14 59 9.7 14.5 0.00 0.00 0.00 77 1028.1
20260510014605 13 40 6.4 16.1 0.00 0.00 0.00 79 1028.2
20260510014104 13 74 11.3 19.3 0.00 0.00 0.00 78 1028.2
20260510013604 13 64 9.7 19.3 0.00 0.00 0.00 79 1028.3
20260510012604 13 81 9.7 14.5 0.00 0.00 0.00 79 1028.3
20260510012105 13 65 3.2 14.5 0.00 0.00 0.00 80 1028.4
20260510011604 13 68 4.8 14.5 0.00 0.00 0.00 80 1028.4
20260510011104 13 67 8.0 14.5 0.00 0.00 0.00 80 1028.4
20260510010105 12 62 9.7 16.1 0.00 0.00 0.00 81 1028.5
20260510005604 12 56 6.4 16.1 0.00 0.00 0.00 81 1028.5
20260510005104 12 74 8.0 14.5 0.00 0.00 0.00 81 1028.6
20260510004604 12 60 11.3 14.5 0.00 0.00 0.00 81 1028.6
20260510004105 12 65 6.4 16.1 0.00 0.00 0.00 81 1028.6
20260510003605 12 86 9.7 16.1 0.00 0.00 0.00 82 1028.5
20260510003104 12 79 8.0 14.5 0.00 0.00 0.00 81 1028.6
20260510002604 13 71 4.8 14.5 0.00 0.00 0.00 80 1028.6
20260510002104 13 50 3.2 14.5 0.00 0.00 0.00 80 1028.6
20260510001604 13 41 3.2 14.5 0.00 0.00 0.00 81 1028.6
20260510000604 12 57 3.2 16.1 0.00 0.00 0.00 81 1028.5
20260509235604 12 70 4.8 11.3 0.00 0.00 0.00 83 1028.4
20260509235104 12 75 8.0 20.9 0.00 0.00 0.00 83 1028.4
20260509234604 11 76 4.8 20.9 0.00 0.00 0.00 83 1028.4
20260509234104 11 73 8.0 12.9 0.00 0.00 0.00 84 1028.3
20260509233104 11 77 12.9 16.1 0.00 0.00 0.00 83 1028.2
20260509232104 11 118 3.2 19.3 0.00 0.00 0.00 84 1028.3
20260509230604 11 65 11.3 19.3 0.00 0.00 0.00 85 1028.2
20260509230104 11 74 11.3 16.1 0.00 0.00 0.00 84 1028.2
20260509224604 10 67 6.4 12.9 0.00 0.00 0.00 84 1028.0
20260509224105 10 81 1.6 12.9 0.00 0.00 0.00 84 1027.9
20260509223605 10 75 4.8 14.5 0.00 0.00 0.00 84 1027.9
20260509222604 10 72 4.8 9.7 0.00 0.00 0.00 84 1027.8
20260509222104 10 64 1.6 8.0 0.00 0.00 0.00 85 1027.8
20260509221604 10 69 1.6 4.8 0.00 0.00 0.00 84 1027.7
20260509221104 9 68 1.6 4.8 0.00 0.00 0.00 85 1027.7
20260509220605 9 67 1.6 4.8 0.00 0.00 0.00 85 1027.7
20260509215604 8 77 1.6 4.8 0.00 0.00 0.00 87 1027.6
20260509215104 8 97 0.0 8.0 0.00 0.00 0.00 87 1027.6
20260509214604 8 97 3.2 8.0 0.00 0.00 0.00 87 1027.6
20260509214105 8 169 0.0 0.0 0.00 0.00 0.00 87 1027.5
20260509213605 8 169 0.0 0.0 0.00 0.00 0.00 87 1027.4
20260509213104 8 169 0.0 0.0 0.00 0.00 0.00 87 1027.4
20260509212604 8 169 0.0 0.0 0.00 0.00 0.00 87 1027.4
20260509212104 8 169 0.0 0.0 0.00 0.00 0.00 87 1027.3
20260509211604 8 169 0.0 0.0 0.00 0.00 0.00 87 1027.2
20260509211104 8 169 0.0 0.0 0.00 0.00 0.00 87 1027.2
20260509210604 8 169 0.0 0.0 0.00 0.00 0.00 87 1027.2
20260509210104 8 169 0.0 0.0 0.00 0.00 0.00 87 1027.1
20260509205604 8 169 0.0 0.0 0.00 0.00 0.00 87 1027.1
20260509204604 8 169 0.0 0.0 0.00 0.00 0.00 87 1026.9
20260509204105 8 169 0.0 0.0 0.00 0.00 0.00 87 1026.9
20260509203604 8 169 0.0 0.0 0.00 0.00 0.00 87 1026.8
20260509202604 8 169 0.0 0.0 0.00 0.00 0.00 87 1026.6
20260509202104 7 169 0.0 0.0 0.00 0.00 0.00 87 1026.5
20260509201604 7 169 0.0 0.0 0.00 0.00 0.00 87 1026.5
20260509201104 7 169 0.0 0.0 0.00 0.00 0.00 87 1026.4
20260509200605 7 169 0.0 0.0 0.00 0.00 0.00 87 1026.4
20260509200104 7 169 0.0 0.0 0.00 0.00 0.00 87 1026.4
20260509195604 7 169 0.0 1.6 0.00 0.00 0.00 87 1026.4
20260509195104 7 169 0.0 1.6 0.00 0.00 0.00 87 1026.3
20260509194604 7 169 0.0 1.6 0.00 0.00 0.00 87 1026.2
20260509194104 7 169 0.0 0.0 0.00 0.00 0.00 87 1026.2
20260509193604 7 169 0.0 0.0 0.00 0.00 0.00 87 1026.1
20260509193104 7 169 0.0 0.0 0.00 0.00 0.00 87 1026.0
20260509192604 7 169 0.0 0.0 0.00 0.00 0.00 87 1026.0
20260509192104 7 169 0.0 0.0 0.00 0.00 0.00 87 1025.9
20260509191604 8 169 0.0 1.6 0.00 0.00 0.00 87 1025.9
20260509191104 8 169 0.0 1.6 0.00 0.00 0.00 87 1025.9
20260509190604 8 169 0.0 1.6 0.00 0.00 0.00 87 1025.8
20260509190104 8 169 0.0 1.6 0.00 0.00 0.00 87 1025.8
20260509185105 8 169 1.6 3.2 0.00 0.00 0.00 87 1025.7
20260509184603 8 169 0.0 1.6 0.00 0.00 0.00 87 1025.7
20260509184104 8 169 0.0 1.6 0.00 0.00 0.00 87 1025.7
20260509183604 8 169 0.0 1.6 0.00 0.00 0.00 87 1025.6
20260509183104 8 169 0.0 1.6 0.00 0.00 0.00 87 1025.5
20260509182604 8 169 0.0 1.6 0.00 0.00 0.00 87 1025.5
20260509182104 8 169 0.0 1.6 0.00 0.00 0.00 87 1025.4
20260509181604 8 169 0.0 1.6 0.00 0.00 0.00 87 1025.4
20260509181104 8 169 0.0 0.0 0.00 0.00 0.00 87 1025.4
20260509180604 8 169 0.0 0.0 0.00 0.00 0.00 87 1025.4
20260509180104 8 169 0.0 0.0 0.00 0.00 0.00 87 1025.4
20260509175604 8 169 0.0 0.0 0.00 0.00 0.00 87 1025.3
20260509175104 8 169 0.0 0.0 0.00 0.00 0.00 87 1025.2
20260509174104 8 169 0.0 3.2 0.00 0.00 0.00 87 1025.2
20260509173104 8 169 3.2 3.2 0.00 0.00 0.00 88 1025.2
20260509172604 8 169 0.0 0.0 0.00 0.00 0.00 88 1025.2
20260509172104 8 169 0.0 1.6 0.00 0.00 0.00 88 1025.2
20260509171604 8 169 0.0 3.2 0.00 0.00 0.00 88 1025.2
20260509171104 8 169 1.6 3.2 0.00 0.00 0.00 87 1025.2
20260509170604 8 169 0.0 0.0 0.00 0.00 0.00 87 1025.3
20260509165604 8 169 0.0 0.0 0.00 0.00 0.00 87 1025.3
20260509165104 8 169 0.0 3.2 0.00 0.00 0.00 87 1025.3
20260509164604 8 169 0.0 3.2 0.00 0.00 0.00 88 1025.3
20260509164104 8 169 0.0 3.2 0.00 0.00 0.00 88 1025.2
20260509163604 8 169 0.0 1.6 0.00 0.00 0.00 88 1025.2
20260509163104 8 169 0.0 1.6 0.00 0.00 0.00 88 1025.3
20260509162604 8 169 0.0 1.6 0.00 0.00 0.00 88 1025.3
20260509161104 8 169 0.0 3.2 0.00 0.00 0.00 90 1025.3
20260509160104 8 169 3.2 3.2 0.00 0.00 0.00 90 1025.3
20260509155604 8 169 3.2 3.2 0.00 0.00 0.00 89 1025.3
20260509155104 8 169 3.2 3.2 0.00 0.00 0.00 89 1025.3
20260509154604 8 169 3.2 3.2 0.00 0.00 0.00 89 1025.2
20260509154104 8 169 3.2 3.2 0.00 0.00 0.00 88 1025.3
20260509153604 8 169 3.2 4.8 0.00 0.00 0.00 88 1025.4
20260509153104 8 169 3.2 4.8 0.00 0.00 0.00 89 1025.4
20260509152104 8 166 4.8 4.8 0.00 0.00 0.00 90 1025.4
20260509145604 8 166 3.2 4.8 0.00 0.00 0.00 90 1025.4
20260509145104 8 166 3.2 4.8 0.00 0.00 0.00 90 1025.3
20260509144104 8 158 3.2 4.8 0.00 0.00 0.00 90 1025.4
20260509143104 8 158 3.2 4.8 0.00 0.00 0.00 90 1025.4
20260509142104 8 158 3.2 4.8 0.00 0.00 0.00 89 1025.4
20260509141604 8 158 3.2 4.8 0.00 0.00 0.00 89 1025.4
20260509141105 8 149 4.8 4.8 0.00 0.00 0.00 89 1025.3
20260509140604 8 136 3.2 4.8 0.00 0.00 0.00 89 1025.4
20260509140105 8 134 3.2 4.8 0.00 0.00 0.00 89 1025.4
20260509135605 8 134 4.8 4.8 0.00 0.00 0.00 90 1025.4
20260509135105 8 134 4.8 4.8 0.00 0.00 0.00 89 1025.4
20260509134605 8 134 3.2 4.8 0.00 0.00 0.00 89 1025.4
20260509134104 8 134 3.2 8.0 0.00 0.00 0.00 88 1025.4
20260509133604 8 134 4.8 8.0 0.00 0.00 0.00 88 1025.4
20260509133104 8 131 3.2 8.0 0.00 0.00 0.00 88 1025.4
20260509132605 8 131 4.8 8.0 0.00 0.00 0.00 89 1025.4
20260509132105 8 68 0.0 0.0 0.00 0.00 0.00 90 1025.4
20260509131604 8 63 0.0 0.0 0.00 0.00 0.00 90 1025.4
20260509131104 8 63 0.0 0.0 0.00 0.00 0.00 91 1025.4
20260509130604 8 63 0.0 0.0 0.00 0.00 0.00 92 1025.4
20260509130104 8 63 0.0 0.0 0.00 0.00 0.00 92 1025.4
20260509125604 7 63 0.0 0.0 0.00 0.00 0.00 92 1025.4
20260509125105 7 63 0.0 0.0 0.00 0.00 0.00 93 1025.4
20260509124604 7 63 0.0 0.0 0.00 0.00 0.00 93 1025.4
20260509124104 7 63 0.0 0.0 0.00 0.00 0.00 93 1025.4
20260509122604 7 63 0.0 0.0 0.00 0.00 0.00 94 1025.5
20260509122104 7 63 0.0 0.0 0.00 0.00 0.00 94 1025.6
20260509121604 7 63 0.0 0.0 0.00 0.00 0.00 94 1025.6
20260509121104 7 63 0.0 0.0 0.00 0.00 0.00 93 1025.6
20260509120604 7 63 0.0 0.0 0.00 0.00 0.00 93 1025.7
20260509120104 7 63 0.0 0.0 0.00 0.00 0.00 93 1025.7
20260509115604 7 63 0.0 0.0 0.00 0.00 0.00 93 1025.7
20260509114604 7 62 0.0 0.0 0.00 0.00 0.00 93 1025.7
20260509114104 7 63 0.0 0.0 0.00 0.00 0.00 93 1025.7
20260509113604 7 63 0.0 0.0 0.00 0.00 0.00 92 1025.7
20260509113104 7 62 0.0 0.0 0.00 0.00 0.00 92 1025.6
20260509112104 7 63 0.0 0.0 0.00 0.00 0.00 92 1025.5
20260509111104 7 63 0.0 0.0 0.00 0.00 0.00 92 1025.5
20260509110604 7 63 0.0 0.0 0.00 0.00 0.00 91 1025.5
20260509110104 7 63 0.0 0.0 0.00 0.00 0.00 91 1025.5
20260509105604 7 63 0.0 0.0 0.00 0.00 0.00 91 1025.4
20260509104604 8 63 0.0 0.0 0.00 0.00 0.00 91 1025.5
20260509104108 7 63 0.0 0.0 0.00 0.00 0.00 90 1025.5
20260509103604 8 63 0.0 0.0 0.00 0.00 0.00 90 1025.5
20260509103104 8 63 0.0 0.0 0.00 0.00 0.00 90 1025.4
20260509102604 8 64 0.0 1.6 0.00 0.00 0.00 89 1025.4
20260509102104 8 63 0.0 3.2 0.00 0.00 0.00 89 1025.3
20260509101104 8 63 0.0 0.0 0.00 0.00 0.00 87 1025.3
20260509100604 8 63 0.0 0.0 0.00 0.00 0.00 86 1025.3
20260509100104 8 64 0.0 0.0 0.00 0.00 0.00 85 1025.2
20260509095604 9 63 0.0 0.0 0.00 0.00 0.00 85 1025.2
20260509095104 9 64 0.0 0.0 0.00 0.00 0.00 85 1025.1
20260509094604 9 65 0.0 0.0 0.00 0.00 0.00 85 1025.1
20260509094104 9 65 0.0 0.0 0.00 0.00 0.00 84 1025.0
20260509093604 9 65 0.0 0.0 0.00 0.00 0.00 84 1025.0
20260509093104 9 67 0.0 0.0 0.00 0.00 0.00 84 1025.0
20260509092604 9 67 0.0 0.0 0.00 0.00 0.00 84 1024.9
20260509092104 9 68 0.0 0.0 0.00 0.00 0.00 84 1025.0
20260509091104 9 68 0.0 0.0 0.00 0.00 0.00 85 1024.9
20260509090604 9 68 0.0 0.0 0.00 0.00 0.00 86 1024.9
20260509090104 9 68 0.0 0.0 0.00 0.00 0.00 86 1024.8
20260509085604 9 68 0.0 0.0 0.00 0.00 0.00 86 1024.8
20260509085104 9 68 0.0 0.0 0.00 0.00 0.00 86 1024.8
20260509084604 9 68 0.0 0.0 0.00 0.00 0.00 86 1024.7
20260509084104 9 68 0.0 0.0 0.00 0.00 0.00 86 1024.7
20260509083604 9 68 0.0 0.0 0.00 0.00 0.00 86 1024.6
20260509083104 9 69 0.0 0.0 0.00 0.00 0.00 86 1024.6
20260509082604 9 69 0.0 0.0 0.00 0.00 0.00 86 1024.6
20260509082104 9 69 0.0 0.0 0.00 0.00 0.00 86 1024.5
20260509081604 9 69 0.0 0.0 0.00 0.00 0.00 86 1024.4
20260509081104 9 69 0.0 0.0 0.00 0.00 0.00 86 1024.3
20260509080604 9 69 0.0 0.0 0.00 0.00 0.00 86 1024.2
20260509080104 9 69 0.0 0.0 0.00 0.00 0.00 86 1024.2
20260509075604 10 69 0.0 0.0 0.00 0.00 0.00 86 1024.1
20260509075105 10 69 0.0 0.0 0.00 0.00 0.00 85 1024.0
20260509074604 10 69 0.0 0.0 0.00 0.00 0.00 85 1023.9
20260509073604 10 69 0.0 0.0 0.00 0.00 0.00 84 1023.9
20260509073104 10 69 0.0 0.0 0.00 0.00 0.00 84 1023.8
20260509072604 10 69 0.0 0.0 0.00 0.00 0.00 84 1023.8
20260509072104 10 69 0.0 3.2 0.00 0.00 0.00 83 1023.8
20260509071604 10 69 0.0 3.2 0.00 0.00 0.00 83 1023.7
20260509070604 11 69 1.6 3.2 0.00 0.00 0.00 82 1023.6
20260509070104 11 69 1.6 4.8 0.00 0.00 0.00 82 1023.6
20260509065604 11 69 1.6 4.8 0.00 0.00 0.00 81 1023.5
20260509065104 11 69 1.6 8.0 0.00 0.00 0.00 81 1023.5
20260509064604 12 68 3.2 8.0 0.00 0.00 0.00 81 1023.5
20260509063604 12 62 3.2 8.0 0.00 0.00 0.00 80 1023.4
20260509063104 12 70 3.2 8.0 0.00 0.00 0.00 79 1023.4
20260509062604 12 70 4.8 8.0 0.00 0.00 0.00 79 1023.4
20260509061604 12 66 4.8 11.3 0.00 0.00 0.00 78 1023.3
20260509061104 12 75 6.4 11.3 0.00 0.00 0.00 77 1023.2
20260509060604 12 75 3.2 12.9 0.00 0.00 0.00 77 1023.2
20260509055604 13 61 3.2 12.9 0.00 0.00 0.00 76 1023.0
20260509055104 13 71 1.6 12.9 0.00 0.00 0.00 76 1023.0
20260509054604 13 63 4.8 12.9 0.00 0.00 0.00 75 1023.0
20260509054104 13 58 4.8 11.3 0.00 0.00 0.00 75 1022.9
20260509053604 13 81 3.2 8.0 0.00 0.00 0.00 74 1022.9
20260509053104 13 80 4.8 8.0 0.00 0.00 0.00 74 1022.9
20260509052104 14 75 4.8 12.9 0.00 0.00 0.00 72 1022.8
20260509051604 14 73 6.4 12.9 0.00 0.00 0.00 70 1022.8
20260509050604 15 59 3.2 12.9 0.00 0.00 0.00 65 1022.8
20260509050104 15 67 3.2 4.8 0.00 0.00 0.00 65 1022.8
20260509045604 16 214 1.6 4.8 0.00 0.00 0.00 63 1022.8